SPIDER1 EFKU-EFTP

Flight info

Callsign SPIDER1
Flight time 0h 28m
Altitude 40000
Route NISPO DCT GEMKU
Aircraft F35/M-SDE3RV/LB1

Departure

Time 2026-05-01 07:49
Airport Kuopio Airport (EFKU)

Arrival

Time 2026-05-01 08:18
Airport Tampere-Pirkkala Airport (EFTP)
Time Latitude Longitude Altitude Speed Heading
2026-05-01 07:36 63.00281 27.79174 325 ft 0 kts 241°
2026-05-01 07:41 63.00277 27.79156 325 ft 7 kts 243°
2026-05-01 07:42 63.00267 27.79111 324 ft 0 kts 243°
2026-05-01 07:42 63.00267 27.79110 324 ft 0 kts 243°
2026-05-01 07:42 63.00260 27.79082 325 ft 6 kts 242°
2026-05-01 07:43 63.00257 27.79069 325 ft 6 kts 241°
2026-05-01 07:43 63.00254 27.79031 325 ft 1 kts 308°
2026-05-01 07:44 63.00265 27.79043 323 ft 2 kts 71°
2026-05-01 07:44 63.00337 27.79054 324 ft 15 kts 330°
2026-05-01 07:45 63.00415 27.79009 324 ft 10 kts 349°
2026-05-01 07:45 63.00468 27.79058 324 ft 8 kts 34°
2026-05-01 07:45 63.00514 27.79131 323 ft 9 kts 36°
2026-05-01 07:45 63.00568 27.79219 323 ft 10 kts 35°
2026-05-01 07:46 63.00624 27.79309 324 ft 10 kts 36°
2026-05-01 07:46 63.00683 27.79357 322 ft 11 kts 344°
2026-05-01 07:46 63.00871 27.79181 323 ft 14 kts 338°
2026-05-01 07:47 63.00959 27.79102 322 ft 13 kts 337°
2026-05-01 07:47 63.01010 27.79054 322 ft 7 kts 336°
2026-05-01 07:47 63.01052 27.79041 322 ft 6 kts 19°
2026-05-01 07:47 63.01075 27.79093 321 ft 4 kts 56°
2026-05-01 07:48 63.01102 27.79229 322 ft 11 kts 69°
2026-05-01 07:48 63.01095 27.79409 325 ft 11 kts 132°
2026-05-01 07:48 63.01059 27.79458 325 ft 15 kts 157°
2026-05-01 07:49 63.01016 27.79498 324 ft 54 kts 158°
2026-05-01 07:49 62.99912 27.80502 646 ft 232 kts 161°
2026-05-01 07:49 62.99163 27.81169 1260 ft 246 kts 162°
2026-05-01 07:50 62.98840 27.81450 1521 ft 259 kts 161°
2026-05-01 07:50 62.97174 27.82869 2455 ft 257 kts 163°
2026-05-01 07:51 62.95430 27.83953 3704 ft 266 kts 184°
2026-05-01 07:51 62.93741 27.82861 5482 ft 254 kts 221°
2026-05-01 07:51 62.92625 27.79692 7621 ft 284 kts 248°
2026-05-01 07:52 62.90374 27.69226 14437 ft 477 kts 246°
2026-05-01 07:52 62.88749 27.62788 19867 ft 399 kts 244°
2026-05-01 07:52 62.87281 27.57504 24551 ft 444 kts 245°
2026-05-01 07:53 62.83433 27.44923 33164 ft 520 kts 236°
2026-05-01 07:53 62.81099 27.38954 36326 ft 533 kts 234°
2026-05-01 07:53 62.78764 27.32422 38206 ft 557 kts 237°
2026-05-01 07:53 62.76359 27.25687 38791 ft 563 kts 233°
2026-05-01 07:54 62.71550 27.12255 39664 ft 542 kts 237°
2026-05-01 07:55 62.66117 26.92142 40018 ft 533 kts 242°
2026-05-01 07:56 62.57298 26.59439 40043 ft 538 kts 243°
2026-05-01 07:57 62.51567 26.38456 40035 ft 540 kts 242°
2026-05-01 07:57 62.47549 26.24740 39922 ft 542 kts 240°
2026-05-01 07:58 62.43376 26.11169 40007 ft 542 kts 239°
2026-05-01 07:59 62.35130 25.85227 40023 ft 543 kts 238°
2026-05-01 08:00 62.21929 25.45772 40020 ft 540 kts 242°
2026-05-01 08:01 62.14641 25.18028 40054 ft 538 kts 244°
2026-05-01 08:02 62.09006 24.97308 40039 ft 537 kts 243°
2026-05-01 08:03 62.03304 24.76667 40052 ft 539 kts 243°
2026-05-01 08:03 61.97565 24.56108 40125 ft 539 kts 243°
2026-05-01 08:04 61.89862 24.28799 40119 ft 537 kts 242°
2026-05-01 08:05 61.84079 24.08503 40152 ft 537 kts 242°
2026-05-01 08:06 61.78304 23.88591 36601 ft 478 kts 242°
2026-05-01 08:06 61.74645 23.76230 28670 ft 457 kts 243°
2026-05-01 08:07 61.71594 23.66455 20755 ft 376 kts 243°
2026-05-01 08:07 61.69154 23.58915 13061 ft 280 kts 242°
2026-05-01 08:08 61.68129 23.55711 10818 ft 230 kts 242°
2026-05-01 08:08 61.66347 23.50098 10296 ft 226 kts 253°
2026-05-01 08:09 61.64232 23.45387 10242 ft 248 kts 194°
2026-05-01 08:09 61.62514 23.45764 10248 ft 245 kts 156°
2026-05-01 08:09 61.61011 23.47539 10224 ft 248 kts 146°
2026-05-01 08:10 61.58643 23.52647 9303 ft 238 kts 100°
2026-05-01 08:10 61.58302 23.59390 7779 ft 231 kts 86°
2026-05-01 08:11 61.58154 23.66158 6312 ft 232 kts 88°
2026-05-01 08:11 61.57630 23.72946 4799 ft 238 kts 96°
2026-05-01 08:12 61.57143 23.79456 3334 ft 222 kts 95°
2026-05-01 08:12 61.56819 23.82537 2984 ft 211 kts 105°
2026-05-01 08:12 61.54991 23.87679 2914 ft 225 kts 142°
2026-05-01 08:13 61.53728 23.89572 2830 ft 224 kts 151°
2026-05-01 08:13 61.52339 23.90994 2773 ft 221 kts 159°
2026-05-01 08:13 61.49578 23.91030 2807 ft 197 kts 227°
2026-05-01 08:14 61.48621 23.88788 2788 ft 204 kts 236°
2026-05-01 08:14 61.47702 23.86477 2567 ft 202 kts 235°
2026-05-01 08:14 61.46916 23.84045 2342 ft 199 kts 245°
2026-05-01 08:14 61.46280 23.81473 2157 ft 196 kts 248°
2026-05-01 08:15 61.45706 23.79022 1847 ft 169 kts 248°
2026-05-01 08:15 61.44748 23.74930 1503 ft 156 kts 249°
2026-05-01 08:15 61.44290 23.72979 1320 ft 147 kts 247°
2026-05-01 08:16 61.43849 23.71075 1186 ft 148 kts 248°
2026-05-01 08:16 61.43403 23.69144 1046 ft 151 kts 248°
2026-05-01 08:16 61.42967 23.67225 865 ft 147 kts 247°
2026-05-01 08:16 61.42545 23.65383 679 ft 137 kts 248°
2026-05-01 08:17 61.42128 23.63577 509 ft 136 kts 247°
2026-05-01 08:17 61.41744 23.61855 378 ft 112 kts 247°
2026-05-01 08:17 61.41459 23.60617 391 ft 80 kts 245°
2026-05-01 08:17 61.41246 23.59728 387 ft 58 kts 244°
2026-05-01 08:18 61.41114 23.59194 393 ft 9 kts 198°
2026-05-01 08:18 61.41020 23.59256 392 ft 9 kts 155°
2026-05-01 08:19 61.40974 23.59382 390 ft 0 kts 98°
2026-05-01 08:19 61.40973 23.59422 390 ft 5 kts 88°
2026-05-01 08:19 61.40975 23.59473 391 ft 2 kts 84°
2026-05-01 08:19 61.40975 23.59491 391 ft 2 kts 86°
2026-05-01 08:20 61.40975 23.59593 391 ft 13 kts 92°
2026-05-01 08:20 61.40953 23.59832 387 ft 18 kts 108°
2026-05-01 08:20 61.40903 23.60058 385 ft 17 kts 124°
2026-05-01 08:20 61.40821 23.60249 376 ft 18 kts 137°
2026-05-01 08:21 61.40735 23.60432 375 ft 17 kts 130°
2026-05-01 08:21 61.40700 23.60659 373 ft 15 kts 92°
2026-05-01 08:21 61.40719 23.60861 372 ft 14 kts 76°
2026-05-01 08:21 61.40721 23.61040 375 ft 10 kts 100°
2026-05-01 08:22 61.40709 23.61190 373 ft 11 kts 96°
2026-05-01 08:22 61.40717 23.61370 371 ft 12 kts 77°
2026-05-01 08:22 61.40723 23.61467 373 ft 2 kts 132°
2026-05-01 08:22 61.40717 23.61480 373 ft 0 kts 131°